• In Belarus
  • List of Countries
  • For 7 days
  • Water Temperature
  • Satellite Maps
  • Weather Map
  • Weather Widgets
  • user-avatar
    Login

    Hourly Weather Thonex

    Today, 25 June, Monday

    Time Temperature Precipitation Wind Pressure Humidity
    00:00 +13°C° 0 mm 1 mps 727 mmHg 93%
    01:00 +13°C° 0 mm 1 mps 727 mmHg 94%
    02:00 +13°C° 0 mm 1 mps 727 mmHg 94%
    03:00 +12°C° 0 mm 1 mps 727 mmHg 95%
    04:00 +13°C° 0 mm 2 mps 727 mmHg 90%
    05:00 +15°C° 0 mm 2 mps 727 mmHg 85%
    06:00 +16°C° 0 mm 2 mps 727 mmHg 80%
    07:00 +18°C° 0 mm 3 mps 727 mmHg 71%
    08:00 +20°C° 0 mm 3 mps 727 mmHg 63%
    09:00 +22°C° 0 mm 4 mps 727 mmHg 54%
    10:00 +23°C° 0 mm 4 mps 727 mmHg 51%
    11:00 +25°C° 0 mm 4 mps 727 mmHg 49%
    12:00 +26°C° 0 mm 4 mps 727 mmHg 46%
    13:00 +26°C° 0 mm 4 mps 727 mmHg 46%
    14:00 +26°C° 0 mm 4 mps 727 mmHg 47%
    15:00 +26°C° 0 mm 4 mps 727 mmHg 47%
    16:00 +25°C° 0 mm 4 mps 727 mmHg 53%
    17:00 +23°C° 0 mm 4 mps 727 mmHg 58%
    18:00 +22°C° 0 mm 3 mps 728 mmHg 64%
    19:00 +20°C° 0 mm 3 mps 728 mmHg 71%
    20:00 +18°C° 0 mm 3 mps 728 mmHg 78%
    21:00 +16°C° 0 mm 3 mps 728 mmHg 85%
    22:00 +15°C° 0 mm 2 mps 728 mmHg 87%
    23:00 +15°C° 0 mm 2 mps 728 mmHg 89%

    Tomorrow, 26 June, Tuesday

    Time Temperature Precipitation Wind Pressure Humidity
    00:00 +14°C° 0 mm 2 mps 728 mmHg 91%
    01:00 +14°C° 0 mm 2 mps 728 mmHg 92%
    02:00 +13°C° 0 mm 2 mps 728 mmHg 93%
    03:00 +13°C° 0 mm 1 mps 728 mmHg 93%
    04:00 +14°C° 0 mm 1 mps 728 mmHg 88%
    05:00 +16°C° 0 mm 1 mps 728 mmHg 82%
    06:00 +18°C° 0 mm 1 mps 728 mmHg 76%
    07:00 +19°C° 0 mm 2 mps 728 mmHg 67%
    08:00 +21°C° 0 mm 2 mps 728 mmHg 57%
    09:00 +24°C° 0 mm 2 mps 728 mmHg 48%
    10:00 +25°C° 0 mm 3 mps 728 mmHg 45%
    11:00 +27°C° 0 mm 3 mps 728 mmHg 43%
    12:00 +28°C° 0 mm 3 mps 728 mmHg 40%
    13:00 +28°C° 0 mm 3 mps 728 mmHg 42%
    14:00 +28°C° 0 mm 3 mps 728 mmHg 44%
    15:00 +28°C° 0 mm 3 mps 727 mmHg 45%
    16:00 +27°C° 0 mm 3 mps 727 mmHg 53%
    17:00 +26°C° 0 mm 2 mps 727 mmHg 60%
    18:00 +25°C° 0 mm 2 mps 727 mmHg 67%
    19:00 +23°C° 0 mm 2 mps 728 mmHg 74%
    20:00 +20°C° 0 mm 2 mps 728 mmHg 81%
    21:00 +18°C° 0 mm 2 mps 728 mmHg 88%
    22:00 +17°C° 0 mm 2 mps 728 mmHg 89%
    23:00 +16°C° 0 mm 1 mps 728 mmHg 91%

    Day after tomorrow, 27 June, Wednesday

    Time Temperature Precipitation Wind Pressure Humidity
    00:00 +16°C° 0 mm 1 mps 727 mmHg 93%
    01:00 +15°C° 0 mm 1 mps 727 mmHg 93%
    02:00 +15°C° 0 mm 1 mps 727 mmHg 93%
    03:00 +15°C° 0 mm 1 mps 727 mmHg 93%
    04:00 +16°C° 0 mm 1 mps 727 mmHg 89%
    05:00 +18°C° 0 mm 1 mps 727 mmHg 85%
    06:00 +20°C° 0 mm 1 mps 727 mmHg 81%
    07:00 +22°C° 0 mm 1 mps 727 mmHg 71%
    08:00 +24°C° 0 mm 1 mps 727 mmHg 62%
    09:00 +26°C° 0 mm 2 mps 727 mmHg 52%
    10:00 +27°C° 0 mm 2 mps 726 mmHg 49%
    11:00 +28°C° 0 mm 3 mps 726 mmHg 46%
    12:00 +29°C° 0 mm 3 mps 726 mmHg 42%
    13:00 +29°C° 0 mm 3 mps 726 mmHg 43%
    14:00 +29°C° 0 mm 3 mps 725 mmHg 44%
    15:00 +29°C° 0 mm 3 mps 725 mmHg 45%
    16:00 +28°C° 0 mm 3 mps 725 mmHg 51%
    17:00 +26°C° 0 mm 3 mps 725 mmHg 58%
    18:00 +25°C° 0 mm 2 mps 725 mmHg 64%
    19:00 +23°C° 0 mm 2 mps 725 mmHg 71%
    20:00 +20°C° 0 mm 2 mps 725 mmHg 77%
    21:00 +18°C° 0 mm 2 mps 725 mmHg 83%
    22:00 +17°C° 0 mm 2 mps 725 mmHg 85%
    23:00 +17°C° 0 mm 2 mps 725 mmHg 87%

    28 June, Thursday

    Time Temperature Precipitation Wind Pressure Humidity
    00:00 +16°C° 0 mm 2 mps 725 mmHg 89%
    01:00 +15°C° 0 mm 2 mps 724 mmHg 89%
    02:00 +15°C° 0 mm 2 mps 724 mmHg 90%
    03:00 +14°C° 0 mm 1 mps 724 mmHg 90%
    04:00 +15°C° 0 mm 2 mps 724 mmHg 84%
    05:00 +16°C° 0 mm 2 mps 724 mmHg 79%
    06:00 +18°C° 0 mm 2 mps 724 mmHg 73%
    07:00 +20°C° 0 mm 2 mps 724 mmHg 64%
    08:00 +21°C° 0 mm 3 mps 724 mmHg 55%
    09:00 +24°C° 0 mm 3 mps 724 mmHg 46%
    10:00 +25°C° 0 mm 4 mps 724 mmHg 44%
    11:00 +26°C° 0 mm 4 mps 724 mmHg 41%
    12:00 +27°C° 0 mm 4 mps 724 mmHg 39%
    13:00 +27°C° 0 mm 4 mps 724 mmHg 40%
    14:00 +27°C° 0 mm 4 mps 724 mmHg 40%
    15:00 +27°C° 0 mm 4 mps 723 mmHg 41%
    16:00 +26°C° 0 mm 4 mps 723 mmHg 47%
    17:00 +25°C° 0 mm 3 mps 724 mmHg 54%
    18:00 +24°C° 0 mm 3 mps 724 mmHg 60%
    19:00 +21°C° 0 mm 3 mps 724 mmHg 66%
    20:00 +19°C° 0 mm 3 mps 724 mmHg 72%
    21:00 +17°C° 0 mm 2 mps 724 mmHg 79%
    22:00 +16°C° 0 mm 2 mps 724 mmHg 81%
    23:00 +16°C° 0 mm 2 mps 724 mmHg 83%

    29 June, Friday

    Time Temperature Precipitation Wind Pressure Humidity
    00:00 +15°C° 0 mm 2 mps 723 mmHg 85%
    01:00 +15°C° 0 mm 2 mps 723 mmHg 86%
    02:00 +14°C° 0 mm 2 mps 723 mmHg 88%
    03:00 +14°C° 0 mm 2 mps 723 mmHg 89%
    04:00 +15°C° 0 mm 2 mps 723 mmHg 83%
    05:00 +17°C° 0 mm 2 mps 723 mmHg 78%
    06:00 +18°C° 0 mm 2 mps 723 mmHg 72%
    07:00 +20°C° 0 mm 3 mps 723 mmHg 66%
    08:00 +22°C° 0 mm 3 mps 722 mmHg 60%
    09:00 +25°C° 0 mm 3 mps 722 mmHg 54%
    10:00 +26°C° 0 mm 4 mps 722 mmHg 52%
    11:00 +27°C° 0 mm 4 mps 722 mmHg 50%
    12:00 +28°C° 0 mm 4 mps 721 mmHg 48%
    13:00 +27°C° 0.5 mm 4 mps 721 mmHg 55%
    14:00 +26°C° 0.5 mm 4 mps 721 mmHg 61%
    15:00 +26°C° 0.5 mm 4 mps 721 mmHg 67%
    16:00 +25°C° 0.6 mm 3 mps 721 mmHg 72%
    17:00 +24°C° 0.6 mm 3 mps 721 mmHg 77%
    18:00 +22°C° 0.6 mm 3 mps 721 mmHg 81%
    19:00 +20°C° 0.3 mm 2 mps 721 mmHg 86%
    20:00 +19°C° 0.3 mm 2 mps 722 mmHg 91%
    21:00 +19°C° 0.3 mm 1 mps 722 mmHg 95%
    22:00 +18°C° 0 mm 1 mps 722 mmHg 96%
    23:00 +18°C° 0 mm 1 mps 722 mmHg 96%

    30 June, Saturday

    Time Temperature Precipitation Wind Pressure Humidity
    00:00 +16°C° 0 mm 1 mps 722 mmHg 97%
    01:00 +16°C° 0 mm 1 mps 722 mmHg 97%
    02:00 +15°C° 0 mm 1 mps 722 mmHg 97%
    03:00 +15°C° 0 mm 1 mps 722 mmHg 97%
    04:00 +16°C° 0 mm 1 mps 722 mmHg 94%
    05:00 +18°C° 0 mm 1 mps 722 mmHg 92%
    06:00 +17°C° 0 mm 0 mps 722 mmHg 89%
    07:00 +21°C° 0 mm 1 mps 722 mmHg 81%
    08:00 +22°C° 0 mm 1 mps 722 mmHg 72%
    09:00 +24°C° 0 mm 2 mps 722 mmHg 63%
    10:00 +25°C° 0.1 mm 2 mps 722 mmHg 60%
    11:00 +26°C° 0.1 mm 2 mps 722 mmHg 57%
    12:00 +27°C° 0.1 mm 2 mps 722 mmHg 53%
    13:00 +26°C° 0.1 mm 2 mps 722 mmHg 54%
    14:00 +26°C° 0.1 mm 3 mps 722 mmHg 55%
    15:00 +26°C° 0.1 mm 3 mps 722 mmHg 56%
    16:00 +25°C° 0.1 mm 2 mps 722 mmHg 62%
    17:00 +24°C° 0.1 mm 2 mps 723 mmHg 67%
    18:00 +21°C° 0.1 mm 2 mps 723 mmHg 73%
    19:00 +20°C° 0.1 mm 2 mps 723 mmHg 79%
    20:00 +18°C° 0.1 mm 2 mps 724 mmHg 84%
    21:00 +16°C° 0.1 mm 1 mps 724 mmHg 90%
    22:00 +15°C° 0 mm 1 mps 724 mmHg 91%
    23:00 +14°C° 0 mm 1 mps 724 mmHg 93%
    Show more